TimeEDT,TemperatureF,Dew PointF,Humidity,Sea Level PressureIn,VisibilityMPH,Wind Direction,Wind SpeedMPH,Gust SpeedMPH,PrecipitationIn,Events,Conditions,WindDirDegrees,DateUTC
12:54 AM,61.0,60.1,97,30.13,5.0,Calm,Calm,-,N/A,,Clear,0,2013-08-21 04:54:00
1:18 AM,60.8,59.0,94,30.14,5.0,Calm,Calm,-,N/A,,Scattered Clouds,0,2013-08-21 05:18:00
1:54 AM,60.1,59.0,96,30.14,5.0,Calm,Calm,-,N/A,,Clear,0,2013-08-21 05:54:00
2:03 AM,59.0,59.0,100,30.14,2.0,Calm,Calm,-,N/A,,Scattered Clouds,0,2013-08-21 06:03:00
2:07 AM,59.0,57.2,94,30.14,1.2,Calm,Calm,-,N/A,,Mostly Cloudy,0,2013-08-21 06:07:00
2:14 AM,59.0,57.2,94,30.14,3.0,Calm,Calm,-,N/A,,Mostly Cloudy,0,2013-08-21 06:14:00
2:33 AM,59.0,57.2,94,30.14,2.5,Calm,Calm,-,N/A,,Scattered Clouds,0,2013-08-21 06:33:00
2:43 AM,59.0,57.2,94,30.14,1.0,Calm,Calm,-,N/A,,Mist,0,2013-08-21 06:43:00
2:50 AM,59.0,59.0,100,30.14,0.5,Calm,Calm,-,N/A,Fog,Fog,0,2013-08-21 06:50:00
2:54 AM,57.9,57.9,100,30.14,0.5,Calm,Calm,-,N/A,Fog,Fog,0,2013-08-21 06:54:00
3:05 AM,57.2,57.2,100,30.14,0.2,Calm,Calm,-,N/A,Fog,Fog,0,2013-08-21 07:05:00
3:54 AM,57.9,57.9,100,30.15,0.2,Calm,Calm,-,N/A,Fog,Fog,0,2013-08-21 07:54:00
4:54 AM,57.9,57.9,100,30.15,0.2,Calm,Calm,-,N/A,Fog,Fog,0,2013-08-21 08:54:00
5:54 AM,57.0,57.0,100,30.16,0.2,Calm,Calm,-,N/A,Fog,Fog,0,2013-08-21 09:54:00
6:54 AM,57.9,57.9,100,30.18,0.2,Calm,Calm,-,N/A,Fog,Fog,0,2013-08-21 10:54:00
7:54 AM,59.0,59.0,100,30.19,0.2,Calm,Calm,-,N/A,Fog,Fog,0,2013-08-21 11:54:00
8:54 AM,61.0,61.0,100,30.18,1.0,Calm,Calm,-,N/A,,Overcast,0,2013-08-21 12:54:00
9:02 AM,62.6,60.8,94,30.18,3.0,Calm,Calm,-,N/A,,Mostly Cloudy,0,2013-08-21 13:02:00
9:14 AM,62.6,62.6,100,30.18,6.0,Calm,Calm,-,N/A,,Scattered Clouds,0,2013-08-21 13:14:00
9:54 AM,70.0,62.1,76,30.17,10.0,Calm,Calm,-,N/A,,Clear,0,2013-08-21 13:54:00
10:54 AM,77.0,63.0,62,30.16,10.0,Calm,Calm,-,N/A,,Clear,0,2013-08-21 14:54:00
11:54 AM,81.0,63.0,54,30.14,10.0,Variable,4.6,-,N/A,,Partly Cloudy,0,2013-08-21 15:54:00
12:54 PM,82.9,60.1,46,30.12,10.0,Variable,3.5,-,N/A,,Partly Cloudy,0,2013-08-21 16:54:00
1:54 PM,84.9,59.0,41,30.11,10.0,Variable,6.9,-,N/A,,Scattered Clouds,0,2013-08-21 17:54:00
2:54 PM,86.0,59.0,40,30.09,10.0,WNW,4.6,-,N/A,,Partly Cloudy,300,2013-08-21 18:54:00
3:54 PM,86.0,57.9,38,30.07,10.0,West,10.4,-,N/A,,Clear,270,2013-08-21 19:54:00
4:54 PM,84.9,57.0,38,30.06,10.0,West,6.9,-,N/A,,Clear,280,2013-08-21 20:54:00
5:54 PM,82.9,60.1,46,30.06,10.0,WSW,3.5,-,N/A,,Clear,250,2013-08-21 21:54:00
6:54 PM,80.1,61.0,52,30.05,10.0,WSW,5.8,-,N/A,,Clear,240,2013-08-21 22:54:00
7:54 PM,73.0,64.9,76,30.05,10.0,Calm,Calm,-,N/A,,Clear,0,2013-08-21 23:54:00
8:54 PM,69.1,64.0,84,30.06,10.0,Calm,Calm,-,N/A,,Clear,0,2013-08-22 00:54:00
9:54 PM,64.9,63.0,93,30.05,7.0,Calm,Calm,-,N/A,,Clear,0,2013-08-22 01:54:00
10:54 PM,64.0,62.1,93,30.05,6.0,Calm,Calm,-,N/A,,Clear,0,2013-08-22 02:54:00
11:54 PM,62.1,61.0,96,30.05,6.0,Calm,Calm,-,N/A,,Clear,0,2013-08-22 03:54:00